Location: Arthez
(43.0833°N, 0.2500°W)
Time: 01:10:35
(UTC+00:00)

IRS-1C Rocket - Pass Details

Date: 23 October 2021
Orbit: 801 x 805 km, 98.9° (Epoch: 06 December)

Event Time Altitude Azimuth Distance (km) Brightness Sun altitude
Exits shadow 19:11:07 18° 168° (SSE) 1,884 5.8 -23.6°
Maximum altitude 19:15:07 83° 255° (WSW) 814 4.1 -24.3°
Drops below altitude 10° 19:20:26 10° 344° (NNW) 2,391 6.8 -25.3°
Sets 19:22:46 0° 346° (NNW) 3,327 7.6 -25.7°
